User: anonymous   Login
Location: UBC Liquid-Mirror Observatory
(49.2876°N, 122.5728°W)
Time: 08:31:43
(UTC-07:00)
Language:

KITSAT 1 - Orbit

View from above orbital plane
View from above orbital plane
View from above satellite
View from above satellite

Ground track
Ground track

The orbit data is extracted from the following two-line orbital elements,

1 22077U 92052B   15089.89505884 -.00000050  00000-0  46787-4 0  9998
2 22077 066.0846 221.7317 0007598 333.1593 110.8503 12.86503445 63284
Epoch (UTC): 30 March 2015 21:28:53
Eccentricity: 0.0007598
inclination: 66.0846°
perigee height: 1309 km
apogee height: 1321 km
right ascension of ascending node: 221.7317°
argument of perigee: 333.1593°
revolutions per day: 12.86503445
mean anomaly at epoch: 110.8503°
orbit number at epoch: 6328

The dashed part of the orbit path shows where the satellite is in the earth's shadow,  

DLR